Weather History for KTWF - June, 2014

Change the Weather History Date:

Saturday, June 7, 2014

  Actual Average Record
Temperature  
Mean Temperature 67 °F -  
Max Temperature 82 °F 77 °F 93 °F (2013)
Min Temperature 52 °F 48 °F 38 °F (2012)
Degree Days  
Heating Degree Days 0 4  
Month to date heating degree days 2 36  
Since 1 June heating degree days 2 36  
Since 1 July heating degree days 5519 6120  
Cooling Degree Days 2 2  
Month to date cooling degree days 22 11  
Year to date cooling degree days 55 33  
Since 1 June cooling degree days 22 11  
Growing Degree Days 19 (Base 50)    
Moisture  
Dew Point 27 °F    
Average Humidity 23    
Maximum Humidity 32    
Minimum Humidity 14    
Precipitation  
Precipitation 0.00 in 0.04 in 0.28 in (1993)
Month to date precipitation T 0.27  
Year to date precipitation 5.59 5.60  
Sea Level Pressure  
Sea Level Pressure 29.85 in    
Wind  
Wind Speed 15 mph (WSW)    
Max Wind Speed 21 mph    
Max Gust Speed 25 mph    
Visibility 10 miles    
Events      
T = Trace of Precipitation, MM = Missing Value Source: NWS Daily Summary

Daily Weather History Graph

Daily Weather History Graph

Search for Another Location

Airport or City:

Trip Planner

Search our weather history database for the weather conditions in past years. The results will help you decide how hot, cold, wet, or windy it might be!

Date:

Astronomy

Jun. 07, 2014 Rise Set
Actual Time 6:01 AM MDT 9:12 PM MDT
Civil Twilight 5:26 AM MDT 9:47 PM MDT
Nautical Twilight 4:42 AM MDT 10:31 PM MDT
Astronomical Twilight 3:48 AM MDT 11:25 PM MDT
Moon 3:28 PM MDT (6/7) 2:31 AM MDT (6/7)
Length of Visible Light 16h 20m
Length of Day
15h 11m
Waxing Gibbous, 68% of the Moon is Illuminated
Jun 7
Waxing Gibbous
Jun 12
Full
Jun 19
Last Quarter
Jun 27
New
Jul 5
First Quarter

Hourly Weather History & Observations

Time (MDT) Temp. Dew Point Humidity Pressure Visibility Wind Dir Wind Speed Gust Speed Precip Events Conditions
12:53 AM 61.0 °F 21.9 °F 22% 29.84 in 10.0 mi SSW 17.3 mph - N/A   Clear
1:53 AM 57.9 °F 21.0 °F 24% 29.84 in 10.0 mi SSW 16.1 mph - N/A   Clear
3:53 AM 57.0 °F 21.9 °F 26% 29.85 in 10.0 mi SSW 11.5 mph - N/A   Clear
4:53 AM 57.9 °F 21.9 °F 25% 29.83 in 10.0 mi SW 13.8 mph 24.2 mph N/A   Clear
6:53 AM 57.0 °F 27.0 °F 32% 29.88 in 10.0 mi SSW 13.8 mph - N/A   Clear
7:53 AM 61.0 °F 28.9 °F 30% 29.89 in 10.0 mi SW 11.5 mph - N/A   Clear
9:53 AM 69.1 °F 30.0 °F 23% 29.91 in 10.0 mi WSW 15.0 mph - N/A   Clear
10:53 AM 71.1 °F 28.9 °F 21% 29.91 in 10.0 mi West 18.4 mph 23.0 mph N/A   Clear
11:53 AM 75.0 °F 28.9 °F 18% 29.91 in 10.0 mi WSW 15.0 mph 23.0 mph N/A   Clear
12:53 PM 75.0 °F 30.0 °F 19% 29.89 in 10.0 mi West 16.1 mph - N/A   Clear
1:53 PM 78.1 °F 28.9 °F 17% 29.88 in 10.0 mi West 17.3 mph 23.0 mph N/A   Clear
2:53 PM 79.0 °F 28.9 °F 16% 29.87 in 10.0 mi WSW 12.7 mph 21.9 mph N/A   Clear
3:53 PM 80.1 °F 28.0 °F 15% 29.84 in 10.0 mi WNW 13.8 mph - N/A   Clear
4:53 PM 81.0 °F 27.0 °F 14% 29.82 in 10.0 mi WNW 15.0 mph 21.9 mph N/A   Clear
5:53 PM 79.0 °F 28.0 °F 15% 29.82 in 10.0 mi WNW 16.1 mph - N/A   Clear
6:53 PM 75.9 °F 28.0 °F 17% 29.81 in 10.0 mi West 16.1 mph - N/A   Clear
7:53 PM 73.9 °F 28.0 °F 18% 29.81 in 10.0 mi West 20.7 mph - N/A   Clear
8:53 PM 70.0 °F 28.0 °F 21% 29.81 in 10.0 mi WSW 18.4 mph - N/A   Clear
9:53 PM 68.0 °F 28.9 °F 23% 29.82 in 10.0 mi WSW 17.3 mph - N/A   Clear
10:53 PM 66.0 °F 27.0 °F 23% 29.83 in 10.0 mi WSW 12.7 mph - N/A   Clear
11:53 PM 63.0 °F 27.0 °F 26% 29.84 in 10.0 mi SW 13.8 mph - N/A   Clear